Location: Anjeux
(47.8815°N, 6.2076°E)
Time: 21:29:16
(UTC+00:00)

ALOS - Pass Details

Date: 05 March 2021
Orbit: 683 x 685 km, 97.9° (Epoch: 22 April)

Event Time Altitude Azimuth Distance (km) Brightness Sun altitude
Rises 04:42:23 0° 7° (N) 3,064 5.8 -15.2°
Reaches altitude 10° 04:44:44 10° 1° (N) 2,143 4.9 -14.8°
Maximum altitude 04:49:07 41° 291° (WNW) 990 2.7 -14.1°
Enters shadow 04:53:13 12° 223° (SW) 2,025 4.3 -13.4°
